Simultaneous Nadir Overpasses (SNOs) Predictions

Prediction of SNOs between LANDSAT-8 and NPP Satellite Orbit:

Table of predicted SNOs for the next 14.0 days since TLE Epoch: 12/26/2015
Index Date (LANDSAT-8) Time (LANDSAT-8) Lat,Lon (LANDSAT-8) SZA (LANDSAT-8 ) Date (NPP) Time (NPP) Lat,Lon (NPP) SZA (NPP ) Distance(km) Time Diff (sec)
1 12/27/2015 05:19:34 70.32, 96.87 93.58 12/27/2015 05:18:36 70.31, 96.93 93.58 2.27 58
2 12/27/2015 06:09:04 -70.20, -95.66 86.54 12/27/2015 06:09:18 -70.22, -95.62 86.52 2.90 14
3 12/27/2015 06:58:42 69.50, 71.00 92.78 12/27/2015 06:59:50 69.47, 72.81 92.71 70.55 68
4 12/29/2015 21:36:03 70.29,-147.30 93.42 12/29/2015 21:35:29 70.30,-147.28 93.44 1.59 34
5 12/29/2015 22:25:33 -70.17, 20.17 86.70 12/29/2015 22:26:10 -70.16, 20.25 86.71 3.23 37
6 01/01/2016 13:02:57 -70.78, 161.68 86.28 01/01/2016 13:01:46 -70.82, 160.34 86.20 49.36 71
7 01/01/2016 13:52:32 70.24, -31.48 93.19 01/01/2016 13:52:21 70.24, -31.42 93.20 2.23 11
8 01/01/2016 14:42:02 -70.13, 136.00 86.92 01/01/2016 14:43:03 -70.15, 136.03 86.90 2.94 61
9 01/04/2016 05:19:32 -70.34, -83.09 86.94 01/04/2016 05:18:29 -70.35, -83.13 86.93 1.66 63
10 01/04/2016 06:08:59 70.24, 84.40 92.95 01/04/2016 06:09:13 70.24, 84.36 92.96 1.66 14
11 01/04/2016 06:58:37 -69.69,-108.73 87.58 01/04/2016 06:59:47 -69.73,-107.55 87.58 45.73 70
12 01/06/2016 21:36:01 -70.28, 32.70 87.30 01/06/2016 21:35:21 -70.30, 32.72 87.27 2.78 40
13 01/06/2016 22:25:28 70.17,-159.82 92.60 01/06/2016 22:26:05 70.19,-159.79 92.62 2.68 37
14 01/09/2016 13:02:51 70.79, -18.28 92.87 01/09/2016 13:01:41 70.87, -19.74 93.00 53.80 70
15 01/09/2016 13:52:29 -70.25, 148.55 87.66 01/09/2016 13:52:13 -70.25, 148.57 87.66 0.92 16
16 01/09/2016 14:41:56 70.14, -43.97 92.23 01/09/2016 14:42:57 70.14, -43.95 92.22 1.03 61




NCC Satellite Simultaneous Nadir Overpasses (SNOs) Prediction Service
